Weather in Krasnoye

Russia / Orenburg Oblast     51°34′44″N   51°29′08″E
temp.,
°C
wind,
m/s
gust,
m/s
humid.,
%
clouds,
%
prec.,
mm/h
press.,
hPa
HPBL,
m
7 march, sun
sun723:00−6nne4696100 0.5 1012185
02:00−6nne5895100 0.8 1010265
05:00−7n5893100 1.3 1010274
08:00−11n4685100 0.0 1011114
11:00−12nnw468262 0.0 1013139
14:00−8wnw23770 0.0 1014212
17:00−9wsw35850 0.0 1014158
20:00−11sw479654 0.0 101595
8 march, mon
mon823:00−13ssw479340 0.0 1015114
02:00−9ssw81688100 0.0 1012473
05:00−6ssw91786100 0.0 1009725
08:00−5sw101888100 0.1 1007809
11:00−4sw101790100 0.2 1007841
14:00−2sw91391100 0.2 1008894
17:00−2sw81295100 0.6 1008812
20:00−2sw61296100 0.6 1008683
9 march, tue
tue923:00−1sw71394100 1.1 1008671
02:00−1sw71394100 0.2 1007699
05:00−1sw71295100 0.3 1007696
08:00−2wsw5995100 0.4 1008494
11:00−5nw4689100 0.6 1009290
14:00−4nne3386100 0.0 1009256
17:00−5n4695100 1.3 1008431
20:00−7nnw4894100 1.3 1008367
10 march, wed
wed1023:00−12wnw479283 1.3 101098
02:00−14wnw47940 0.0 101194
05:00−16nw449618 0.0 101355
08:00−17nw349474 0.0 101351
11:00−14nw469274 0.0 1015250
14:00−12nw578998 0.0 1016432
17:00−12wnw478999 0.0 1017592
20:00−18nw469485 0.0 101889
11 march, thu
thu1123:00−21nw479543 0.0 1020101
02:00−23nw449641 0.0 102159
05:00−26nw459620 0.0 102366
08:00−27nw44950 0.0 102477
11:00−24nw46910 0.0 1027229
14:00−21nw35890 0.0 1028280
17:00−20w35890 0.0 1028258
20:00−23w34910 0.0 102843